H-2A DEB (43673 NORAD) Tracking and Keplerian Element Data

This shows tracking and keplerian element data for the satellite.

Feedback or suggestion? Click here.




ElementValue
Catalog43673
NameH-2A DEB
Epoch Orbit311
Epoch Day323.20601701
Epoch Year2018
RAAN73.5105
Inclination97.8445
Eccentricity0.0015003
Argument of Perigee216.7807
Mean Anonmoly143.2381
Mean Motion14.87462541
Decay Rate6.17E-06
L11 43673U 18084C 18323.20601701 .00000617 00000-0 74070-4 0 9994
L22 43673 97.8445 73.5105 0015003 216.7807 143.2381 14.87462541 3112

Live tracking and technical data element details for H-2A DEB (NORAD 43673). H-2A DEB can be tracked NOW for your location showing map with azimuth and elevation plus other details from your city location.

Track the satellite on the map from your city or location and see movement details for azimuth, elevation, latitude, longitude, range, height, and movement on the map or in text.







IsCatalogInMostPopularTable: catalog: 43673, numindb: 10
Update: records affected: 1



GetName: 43673 H-2A DEB

Hit Count: updated at: Tue, 20 Nov 2018 11:14:36 GMT